This is the latest recevied weather packets stored in our database for station/object N7WSS. If no packets are shown the sender has not sent any weather packets the latest 10 day(s).
| Time | Temp. | Humidity | Pressure | Rain* | Wind** | Luminosity | Snow |
|---|---|---|---|---|---|---|---|
| 1787960115 | 40° C | 24% | 1010.9 hPa | 0 mm | - | - | - |
| 1787959810 | 39.44° C | 24% | 1010.9 hPa | 0 mm | - | - | - |
| 1787959505 | 40° C | 24% | 1010.8 hPa | 0 mm | - | - | - |
| 1787959200 | 40° C | 24% | 1010.7 hPa | 0 mm | - | - | - |
| 1787958895 | 40.56° C | 24% | 1011.1 hPa | 0 mm | - | - | - |
| 1787958595 | 40.56° C | 24% | 1010.8 hPa | 0 mm | - | - | - |
| 1787958291 | 41.11° C | 24% | 1010.9 hPa | 0 mm | - | - | - |
| 1787957990 | 41.11° C | 24% | 1010.9 hPa | 0 mm | - | - | - |
| 1787957690 | 40.56° C | 23% | 1011.1 hPa | 0 mm | - | - | - |
| 1787957385 | 40° C | 24% | 1011.3 hPa | 0 mm | - | - | - |
| 1787957084 | 40° C | 23% | 1010.9 hPa | 0 mm | - | - | - |
| 1787956779 | 40.56° C | 23% | 1011.1 hPa | 0 mm | - | - | - |
| 1787956474 | 40.56° C | 23% | 1011.2 hPa | 0 mm | - | - | - |
| 1787956169 | 40.56° C | 23% | 1011.2 hPa | 0 mm | - | - | - |
| 1787955869 | 39.44° C | 24% | 1011.2 hPa | 0 mm | - | - | - |
| 1787955565 | 40° C | 23% | 1011.6 hPa | 0 mm | - | - | - |
| 1787955260 | 40° C | 24% | 1011.6 hPa | 0 mm | - | - | - |
| 1787954954 | 40° C | 24% | 1011.7 hPa | 0 mm | - | - | - |
| 1787954651 | 40.56° C | 23% | 1011.7 hPa | 0 mm | - | - | - |
| 1787954349 | 41.67° C | 22% | 1011.6 hPa | 0 mm | - | - | - |
| 1787954045 | 41.67° C | 23% | 1011.7 hPa | 0 mm | - | - | - |
| 1787953744 | 41.11° C | 23% | 1011.8 hPa | 0 mm | - | - | - |
| 1787953439 | 41.67° C | 23% | 1011.9 hPa | 0 mm | - | - | - |
| 1787953137 | 41.67° C | 23% | 1012.1 hPa | 0 mm | - | - | - |
| 1787952836 | 41.11° C | 23% | 1012.1 hPa | 0 mm | - | - | - |
* Rain latest hour (hover to see other rain measurements)
** Current wind speed in m/s (hover to see current wind gust speed)